Weather History for Chesapeake, VA

Change the Weather History Date:

Tuesday, March 4, 2014

  Actual Average (KORF) Record (KORF)
Temperature  
Mean Temperature 27 °F 46 °F  
Max Temperature 33 °F 55 °F 83 °F (2004)
Min Temperature 21 °F 37 °F 16 °F (1943)
Degree Days  
Heating Degree Days 38 19  
Month to date heating degree days 78  
Since 1 July heating degree days 2647  
Cooling Degree Days 0 0  
Month to date cooling degree days 0  
Year to date cooling degree days 1  
Moisture  
Dew Point 23 °F    
Average Humidity 82    
Maximum Humidity 100    
Minimum Humidity 68    
Precipitation  
Precipitation 0.00 in 0.12 in 1.66 in (1993)
Month to date precipitation 0.47  
Year to date precipitation 6.99  
Snow  
Snow 0.00 in 0.00 in 3.00 in (1912)
Month to date snowfall 0.1  
Since 1 July snowfall 5.7  
Snow Depth -    
Sea Level Pressure  
Sea Level Pressure 30.28 in    
Wind  
Wind Speed 8 mph (North)    
Max Wind Speed 15 mph    
Max Gust Speed 22 mph    
Visibility 8 miles    
Events      
T = Trace of Precipitation, MM = Missing Value Source: NWS Daily Summary

Daily Weather History Graph

Daily Weather History Graph

Search for Another Location

Airport:

Trip Planner

Search our weather history database for the weather conditions in past years. The results will help you decide how hot, cold, wet, or windy it might be!

Date:

Astronomy

Mar. 04, 2014 Rise Set
Actual Time 6:31 AM EST 6:02 PM EST
Civil Twilight 6:06 AM EST 6:28 PM EST
Nautical Twilight 5:36 AM EST 6:58 PM EST
Astronomical Twilight 5:06 AM EST 7:28 PM EST
Moon 8:23 AM EST (3/4) 10:00 PM EST (3/4)
Length of Visible Light 12h 22m
Length of Day
11h 30m
Waxing Crescent, 14% of the Moon is Illuminated
Mar 4
Waxing Crescent
Mar 8
First Quarter
Mar 16
Full
Mar 23
Last Quarter
Mar 30
New

Hourly Weather History & Observations

Time (EST) Temp. Windchill Dew Point Humidity Pressure Visibility Wind Dir Wind Speed Gust Speed Precip Events Conditions
12:15 AM 24.8 °F 15.3 °F 17.6 °F 74% 30.30 in 10.0 mi North 9.2 mph 18.4 mph N/A   Mostly Cloudy
12:35 AM 24.8 °F 14.6 °F 15.8 °F 69% 30.29 in 10.0 mi NNE 10.4 mph 16.1 mph N/A   Scattered Clouds
12:55 AM 24.8 °F 15.3 °F 15.8 °F 69% 30.29 in 10.0 mi North 9.2 mph - N/A   Clear
1:15 AM 23.0 °F 13.9 °F 14.0 °F 68% 30.27 in 10.0 mi NNE 8.1 mph - N/A   Clear
1:35 AM 23.0 °F 14.7 °F 14.0 °F 68% - 10.0 mi NNE 6.9 mph 16.1 mph N/A   Clear
1:55 AM 23.0 °F 15.8 °F 15.8 °F 74% 30.29 in 10.0 mi North 5.8 mph - N/A   Clear
2:15 AM 23.0 °F 14.7 °F 15.8 °F 74% 30.28 in 10.0 mi North 6.9 mph - N/A   Clear
2:40 AM 23.0 °F 14.7 °F 15.8 °F 74% 30.28 in 10.0 mi NNE 6.9 mph - N/A   Clear
2:55 AM 23.0 °F 15.8 °F 15.8 °F 74% 30.28 in 10.0 mi NNE 5.8 mph - N/A   Clear
3:15 AM 23.0 °F 14.7 °F 15.8 °F 74% 30.28 in 10.0 mi NNE 6.9 mph - N/A   Clear
3:35 AM 23.0 °F 14.7 °F 15.8 °F 74% 30.28 in 10.0 mi NNE 6.9 mph - N/A   Clear
3:55 AM 21.2 °F 13.6 °F 15.8 °F 80% 30.28 in 10.0 mi NNE 5.8 mph - N/A   Clear
4:15 AM 21.2 °F 14.9 °F 15.8 °F 80% 30.29 in 10.0 mi NNE 4.6 mph - N/A   Clear
4:35 AM 21.2 °F 14.9 °F 15.8 °F 80% 30.29 in 10.0 mi NNE 4.6 mph - N/A   Clear
4:55 AM 23.0 °F 18.4 °F 15.8 °F 74% 30.29 in 10.0 mi NNE 3.5 mph - N/A   Clear
5:15 AM 23.0 °F 15.8 °F 15.8 °F 74% 30.29 in 10.0 mi NNE 5.8 mph - N/A   Scattered Clouds
5:35 AM 23.0 °F 17.0 °F 15.8 °F 74% 30.30 in 10.0 mi NNE 4.6 mph - N/A   Scattered Clouds
5:55 AM 23.0 °F 15.8 °F 15.8 °F 74% 30.32 in 10.0 mi North 5.8 mph - N/A   Clear
6:15 AM 23.0 °F 17.0 °F 17.6 °F 80% 30.32 in 10.0 mi North 4.6 mph - N/A   Scattered Clouds
6:35 AM 24.8 °F 17.9 °F 17.6 °F 74% 30.32 in 10.0 mi North 5.8 mph - N/A   Scattered Clouds
6:55 AM 24.8 °F 17.9 °F 17.6 °F 74% 30.31 in 10.0 mi North 5.8 mph - N/A   Clear
7:15 AM 24.8 °F 17.9 °F 17.6 °F 74% 30.32 in 10.0 mi North 5.8 mph - N/A   Clear
7:35 AM 26.6 °F 20.0 °F 19.4 °F 74% 30.33 in 10.0 mi North 5.8 mph - N/A   Clear
7:55 AM 26.6 °F 16.8 °F 19.4 °F 74% 30.32 in 10.0 mi North 10.4 mph - N/A   Clear
8:15 AM 28.4 °F 20.4 °F 21.2 °F 74% 30.32 in 10.0 mi North 8.1 mph - N/A   Clear
8:35 AM 28.4 °F 19.1 °F 21.2 °F 74% 30.32 in 10.0 mi North 10.4 mph 16.1 mph N/A   Clear
8:55 AM 30.2 °F 19.3 °F 21.2 °F 69% 30.33 in 10.0 mi NNE 15.0 mph 18.4 mph N/A   Clear
9:15 AM 30.2 °F 21.3 °F 23.0 °F 75% 30.33 in 10.0 mi NNE 10.4 mph 16.1 mph N/A   Clear
9:35 AM 30.2 °F 21.9 °F 23.0 °F 75% 30.33 in 10.0 mi North 9.2 mph 16.1 mph N/A   Clear
9:55 AM 30.2 °F 20.8 °F 23.0 °F 75% 30.33 in 10.0 mi North 11.5 mph 17.3 mph N/A   Clear
10:15 AM 32.0 °F 24.2 °F 24.8 °F 75% 30.33 in 10.0 mi North 9.2 mph - N/A   Mostly Cloudy
10:35 AM 32.0 °F 24.8 °F 24.8 °F 75% 30.32 in 10.0 mi North 8.1 mph 16.1 mph N/A   Overcast
10:55 AM 33.8 °F 25.3 °F 24.8 °F 70% 30.32 in 10.0 mi North 11.5 mph 21.9 mph N/A   Overcast
11:15 AM 33.8 °F 24.8 °F 26.6 °F 75% 30.32 in 10.0 mi North 12.7 mph 18.4 mph N/A   Overcast
11:35 AM 32.0 °F 24.2 °F 26.6 °F 80% 30.32 in 10.0 mi NNE 9.2 mph - N/A   Overcast
11:55 AM 32.0 °F 24.2 °F 24.8 °F 75% 30.32 in 10.0 mi North 9.2 mph 16.1 mph N/A   Overcast
12:15 PM 32.0 °F 24.8 °F 26.6 °F 80% 30.31 in 10.0 mi North 8.1 mph 17.3 mph N/A   Overcast
12:35 PM 32.0 °F 24.2 °F 26.6 °F 80% 30.30 in 10.0 mi NNE 9.2 mph - N/A   Overcast
12:55 PM 32.0 °F 23.0 °F 26.6 °F 80% 30.29 in 10.0 mi North 11.5 mph 17.3 mph N/A   Overcast
1:15 PM 32.0 °F 24.8 °F 26.6 °F 80% 30.28 in 10.0 mi NNE 8.1 mph 16.1 mph N/A   Overcast
1:35 PM 30.2 °F 20.8 °F 26.6 °F 86% 30.27 in 10.0 mi North 11.5 mph 17.3 mph N/A   Overcast
1:55 PM 30.2 °F 22.6 °F 26.6 °F 86% 30.27 in 10.0 mi North 8.1 mph 17.3 mph N/A   Overcast
2:15 PM 30.2 °F 20.8 °F 26.6 °F 86% 30.26 in 10.0 mi North 11.5 mph 16.1 mph N/A   Overcast
2:35 PM 32.0 °F 24.8 °F 26.6 °F 80% 30.26 in 10.0 mi North 8.1 mph - N/A   Overcast
2:55 PM 32.0 °F 23.6 °F 26.6 °F 80% 30.25 in 10.0 mi North 10.4 mph 17.3 mph N/A   Overcast
3:15 PM 32.0 °F 24.2 °F 26.6 °F 80% 30.25 in 10.0 mi NNW 9.2 mph - N/A   Overcast
3:35 PM 30.2 °F 23.4 °F 26.6 °F 86% 30.25 in 4.0 mi North 6.9 mph - N/A   Overcast
3:55 PM 30.2 °F 22.6 °F 28.4 °F 93% 30.25 in 4.0 mi NNW 8.1 mph - N/A   Overcast
4:15 PM 30.2 °F 22.6 °F 28.4 °F 93% 30.25 in 2.0 mi NNW 8.1 mph - N/A   Overcast
4:35 PM 30.2 °F 23.4 °F 28.4 °F 93% 30.25 in 2.5 mi NNW 6.9 mph - N/A   Overcast
4:55 PM 30.2 °F 21.3 °F 28.4 °F 93% 30.25 in 2.5 mi North 10.4 mph 17.3 mph N/A   Overcast
5:15 PM 30.2 °F 21.9 °F 28.4 °F 93% 30.25 in 2.0 mi North 9.2 mph 16.1 mph N/A   Overcast
5:35 PM 30.2 °F 25.4 °F 28.4 °F 93% 30.25 in 3.0 mi North 4.6 mph - N/A   Overcast
5:55 PM 30.2 °F 24.3 °F 28.4 °F 93% 30.25 in 3.0 mi North 5.8 mph - N/A   Overcast
6:15 PM 30.2 °F 25.4 °F 28.4 °F 93% 30.24 in 4.0 mi NNW 4.6 mph - N/A   Overcast
6:35 PM 30.2 °F 24.3 °F 28.4 °F 93% 30.24 in 4.0 mi North 5.8 mph - N/A   Overcast
6:55 PM 30.2 °F 24.3 °F 28.4 °F 93% 30.25 in 4.0 mi North 5.8 mph - N/A   Overcast
7:15 PM 30.2 °F 24.3 °F 28.4 °F 93% 30.25 in 4.0 mi North 5.8 mph - N/A   Overcast
7:35 PM 30.2 °F 23.4 °F 30.2 °F 100% 30.25 in 5.0 mi NNW 6.9 mph - N/A   Overcast
7:55 PM 30.2 °F 22.6 °F 28.4 °F 93% 30.26 in 5.0 mi North 8.1 mph - N/A   Overcast
8:15 PM 30.2 °F 21.9 °F 28.4 °F 93% 30.26 in 5.0 mi North 9.2 mph - N/A   Overcast
8:35 PM 30.2 °F 22.6 °F 28.4 °F 93% 30.26 in 7.0 mi North 8.1 mph - N/A   Overcast
8:55 PM 30.2 °F 23.4 °F 28.4 °F 93% 30.26 in 10.0 mi NNW 6.9 mph - N/A   Overcast
9:15 PM 30.2 °F 24.3 °F 28.4 °F 93% 30.25 in 10.0 mi North 5.8 mph - N/A   Overcast
9:35 PM 30.2 °F 23.4 °F 28.4 °F 93% 30.25 in 7.0 mi North 6.9 mph - N/A   Overcast
9:55 PM 30.2 °F 24.3 °F 28.4 °F 93% 30.24 in 10.0 mi North 5.8 mph - N/A   Overcast
10:15 PM 30.2 °F 25.4 °F 28.4 °F 93% 30.24 in 7.0 mi North 4.6 mph - N/A   Overcast
10:35 PM 30.2 °F 24.3 °F 28.4 °F 93% 30.23 in 10.0 mi North 5.8 mph - N/A   Overcast
10:55 PM 30.2 °F 24.3 °F 28.4 °F 93% 30.23 in 7.0 mi North 5.8 mph - N/A   Overcast
11:15 PM 30.2 °F 24.3 °F 28.4 °F 93% 30.22 in 7.0 mi NNW 5.8 mph - N/A   Overcast
11:35 PM 30.2 °F 22.6 °F 28.4 °F 93% 30.21 in 7.0 mi North 8.1 mph - N/A   Overcast
11:55 PM 30.2 °F 23.4 °F 30.2 °F 100% 30.20 in 7.0 mi North 6.9 mph - N/A   Overcast